Theta_e
292 293 293 293 294 294 294 294 295 295 295 295 296 296 297 298 299 297 296 298 291 285 281 286 287 283 282 281 276 278 279 280 278 276 275 273 267 273 268 272 275 274 274 270 277 274 272 284 282 281 284 284 287 288
293 293 292 293 293 293 293 294 294 294 295 295 295 295 296 297 297 298 291 298 297 288 283 288 289 291 289 289 282 281 279 275 280 273 272 271 268 268 270 266 277 270 276 272 276 275 283 283 283 287 291 286 285 287
292 292 293 293 293 293 293 293 294 294 294 294 295 295 295 296 296 296 292 294 294 286 285 283 285 288 291 291 292 282 284 284 282 282 275 272 269 274 267 268 271 276 280 275 275 278 279 282 284 285 287 286 286 288
291 292 292 292 293 293 293 293 293 294 294 294 295 294 294 295 295 295 291 293 291 285 282 281 287 287 289 290 289 289 287 287 285 281 275 271 267 277 272 275 274 276 278 274 276 279 280 282 282 284 284 283 283 283
291 291 292 292 292 292 292 293 293 293 294 294 294 294 294 294 295 293 292 294 294 286 280 275 281 286 288 288 287 287 287 284 280 280 277 270 272 273 269 273 270 278 276 274 273 279 279 280 282 282 282 282 283 282
290 291 291 291 291 291 292 292 292 293 293 293 293 293 293 294 295 289 283 291 293 292 281 275 281 279 283 287 285 285 285 280 280 277 272 271 278 276 264 260 278 280 279 281 280 282 281 282 283 281 281 281 282 281
291 291 291 291 291 291 291 292 292 293 294 293 293 293 294 294 290 284 283 283 294 292 282 275 276 280 285 284 281 282 283 279 280 276 273 275 277 275 263 266 278 277 279 279 280 278 278 279 278 276 278 278 278 278
291 290 290 291 291 291 291 292 293 293 293 293 293 293 293 294 292 286 289 294 293 287 283 275 272 278 285 279 278 283 280 281 279 276 271 273 275 271 265 275 279 277 277 278 273 271 272 273 275 273 272 272 271 272
291 291 290 290 291 290 291 292 293 293 293 293 293 293 289 287 282 281 292 293 292 285 278 273 272 270 282 279 280 280 281 275 277 271 274 273 266 268 274 277 276 268 269 267 266 267 267 267 268 267 267 267 266 267
293 292 291 290 290 290 290 291 292 292 292 293 288 282 278 279 291 290 282 282 282 282 280 275 272 270 280 276 275 275 276 272 266 270 276 272 266 276 269 265 265 264 263 263 262 264 261 260 263 264 263 264 264 264
291 292 292 291 291 291 291 291 292 292 292 285 280 278 279 290 283 277 275 275 277 273 277 277 277 274 279 273 271 277 271 273 268 268 269 262 263 274 262 261 262 261 261 261 260 261 261 261 261 261 260 260 260 260
290 290 292 291 292 291 291 291 291 288 281 284 282 284 282 278 277 272 273 275 273 271 274 275 276 277 278 280 275 276 272 270 264 265 266 260 268 259 259 258 258 257 254 254 255 256 258 260 259 258 257 256 256 257
290 289 290 291 292 293 292 292 292 291 290 286 281 276 274 274 270 267 266 268 269 273 275 276 274 276 277 279 275 273 268 264 268 267 265 265 258 255 253 254 253 253 252 251 251 252 253 254 254 252 253 253 254 254
289 289 288 289 291 293 292 292 293 291 283 277 274 269 270 268 270 262 268 267 270 275 277 277 269 274 276 272 272 265 267 266 258 257 260 259 254 252 251 251 249 250 250 252 251 251 252 252 251 250 249 251 253 253
288 287 287 287 287 289 293 293 285 269 268 266 270 265 262 260 257 259 257 265 266 278 276 269 272 274 267 269 270 267 262 259 261 261 261 253 251 251 250 249 248 248 249 248 248 248 251 251 250 250 250 251 253 253
286 283 281 287 284 285 282 276 268 267 261 258 254 260 257 261 259 258 258 262 261 268 273 273 270 270 269 270 267 261 261 259 263 254 249 250 248 247 246 246 247 246 246 247 247 249 251 250 251 251 251 253 253 253
280 273 282 284 281 278 278 267 264 259 257 256 252 254 253 255 253 254 255 256 259 264 266 269 264 268 271 266 259 259 261 255 247 247 248 247 248 246 245 244 245 245 245 245 246 248 249 249 251 250 250 251 252 253
269 274 281 281 274 270 264 264 260 257 253 254 253 252 254 253 254 253 254 257 259 262 266 265 267 260 260 259 256 253 249 246 248 249 248 245 244 243 245 245 244 244 245 245 245 245 246 247 249 250 251 252 252 253
271 276 279 278 272 261 259 259 260 253 254 255 256 256 255 254 255 255 255 255 257 258 262 265 265 260 256 251 249 245 250 247 249 249 247 244 246 244 244 244 245 245 245 244 244 245 245 245 247 249 251 251 251 252
277 276 276 274 269 259 255 255 258 255 251 253 254 252 252 252 253 253 254 254 256 254 250 249 247 245 247 247 246 245 245 247 251 247 246 247 246 243 245 246 247 245 244 244 245 247 245 247 249 250 250 251 251 252
268 268 270 263 257 256 254 253 253 254 253 252 253 253 253 253 250 248 248 252 249 246 245 242 241 242 239 239 240 241 246 247 245 246 246 245 246 247 244 244 244 244 244 243 244 246 248 248 250 251 251 251 252 252
260 269 257 262 256 252 252 253 252 253 252 249 251 251 248 248 247 247 249 246 244 242 241 242 241 239 240 240 240 239 240 240 242 245 248 248 245 245 244 243 244 242 243 244 246 248 249 251 252 251 251 252 253 253
261 261 255 253 252 251 247 250 248 247 247 248 247 246 245 244 246 251 245 243 242 244 239 239 239 237 239 238 239 240 239 242 241 241 241 241 240 240 243 242 243 244 243 246 249 250 251 252 252 251 252 252 251 251
256 248 246 246 247 243 244 245 247 245 248 248 248 242 242 241 247 246 240 237 241 241 241 239 238 240 241 240 239 238 240 239 239 240 239 243 243 241 240 241 243 244 247 249 250 251 251 251 251 251 250 249 249 249
253 242 243 240 243 243 241 241 241 244 241 239 244 245 242 241 247 241 242 239 238 238 239 237 238 240 239 237 238 239 239 240 242 242 241 240 239 241 242 243 244 246 248 249 250 250 250 250 250 249 248 248 247 247
239 237 239 235 239 240 237 238 237 237 237 238 238 238 237 240 244 244 240 238 237 238 238 238 239 239 239 239 239 240 241 239 240 241 241 241 243 242 242 244 246 249 249 250 250 250 250 249 248 247 247 246 245 242
238 236 239 239 239 239 238 237 236 238 236 237 235 237 238 243 243 241 239 240 240 238 239 238 239 240 241 239 239 238 238 239 242 244 243 244 246 247 249 250 250 250 249 249 249 248 248 247 246 245 243 239 239 240
238 239 238 236 237 234 234 234 234 235 236 236 236 239 241 242 243 240 241 242 238 238 239 238 239 241 241 242 241 243 245 246 247 248 248 249 248 249 249 249 250 252 249 248 248 246 245 244 243 242 240 240 242 240
237 236 237 236 235 237 235 235 235 235 237 233 237 238 238 239 237 236 239 240 237 238 238 238 240 240 242 244 247 247 248 248 248 248 249 249 248 249 249 250 250 250 249 248 250 251 247 246 246 245 243 243 244 241
236 234 235 233 236 236 237 236 234 233 234 236 236 239 239 238 239 237 237 236 238 238 238 238 239 242 242 242 241 242 243 248 249 250 249 250 251 250 250 250 249 249 249 247 247 247 248 247 245 242 242 240 240 241
235 233 235 235 237 235 234 233 231 232 232 232 231 235 236 236 239 236 241 238 237 234 237 238 238 238 240 242 240 240 243 243 246 248 249 249 250 250 250 250 250 249 248 247 246 245 244 243 241 240 239 240 241 242
233 234 236 238 237 234 232 233 232 233 232 234 234 231 235 236 238 241 241 240 237 237 241 240 239 243 243 244 241 240 246 243 245 248 249 250 250 250 250 249 249 247 246 245 244 243 241 239 240 241 242 241 242 242
233 232 232 235 237 237 234 234 235 236 234 234 235 233 233 236 242 244 244 243 244 245 244 244 244 242 242 243 244 244 247 246 247 254 255 253 252 251 248 247 245 244 243 242 242 242 241 241 242 242 242 243 243 244
Wind_Speed
22 23 22 21 21 22 20 20 21 20 19 20 20 21 21 22 19 11 4 14 11 4 4 10 8 6 4 4 6 4 5 0 2 4 4 5 4 6 3 4 8 8 9 6 7 5 13 7 2 7 4 3 5 6
24 23 21 22 23 23 23 24 23 22 22 22 22 22 23 23 23 18 5 7 12 5 5 8 9 10 10 9 8 5 4 6 5 4 1 3 0 2 7 4 2 3 8 7 11 9 4 3 4 4 5 7 3 3
20 21 23 24 24 26 23 24 26 26 26 25 24 23 23 24 21 20 7 3 6 6 3 4 14 6 7 7 9 7 1 5 4 5 5 3 3 4 4 6 1 4 3 4 4 7 4 6 2 7 6 5 4 6
23 23 22 24 24 25 26 25 27 26 28 25 25 25 24 24 25 20 8 4 4 2 7 5 1 15 9 10 7 7 9 4 6 3 3 4 4 2 3 3 4 7 2 3 4 5 2 5 4 5 5 4 6 6
27 25 25 27 27 28 29 28 28 28 29 27 28 26 24 24 23 17 6 7 9 6 2 2 1 9 12 13 10 9 9 7 3 2 2 4 2 4 2 3 4 6 5 4 7 7 4 8 6 4 8 12 11 8
30 31 30 27 27 27 29 30 29 31 32 29 29 24 22 23 23 5 6 9 11 8 3 4 2 5 7 14 12 12 8 4 4 6 4 2 3 5 4 5 16 14 5 9 15 14 7 12 12 3 6 6 7 7
30 29 28 27 29 28 29 27 33 35 33 30 26 23 24 22 12 6 3 3 18 10 4 3 4 2 12 8 3 3 3 3 4 3 2 4 2 6 4 9 17 4 5 5 8 3 12 9 6 8 6 8 9 7
28 29 29 30 30 27 23 29 32 32 33 30 26 24 22 23 19 10 10 5 9 5 4 5 2 4 11 5 5 3 4 3 1 4 2 4 1 3 4 12 14 3 5 7 5 6 4 8 5 6 7 8 10 9
23 25 27 25 26 24 18 20 24 30 30 27 24 23 11 9 5 4 11 15 6 6 4 4 9 5 5 4 4 3 3 3 2 4 4 6 3 8 14 11 5 3 3 2 7 5 1 3 4 6 8 6 7 10
28 24 25 24 24 22 18 16 22 26 26 25 13 4 5 6 14 9 2 5 8 6 5 3 1 7 11 4 3 5 3 4 3 4 4 4 6 10 3 5 7 5 4 3 4 5 6 2 5 9 8 7 8 10
21 26 16 25 25 25 24 22 23 26 27 9 5 4 4 12 5 4 6 9 5 6 6 5 8 11 3 9 6 2 5 4 5 5 8 3 5 10 7 7 6 5 4 2 0 4 5 7 9 9 8 7 8 9
25 29 28 14 25 27 28 27 25 16 5 10 8 6 3 3 5 8 6 8 6 7 5 13 9 7 4 5 4 4 4 3 6 5 5 5 7 5 5 5 4 4 3 1 2 4 5 7 5 7 6 7 7 8
24 28 33 31 9 28 29 31 31 24 15 4 5 6 5 5 11 10 11 5 8 5 6 12 10 4 3 4 3 4 5 5 7 3 6 7 4 4 4 4 2 1 1 1 3 3 4 5 5 3 6 5 7 7
21 27 30 31 30 21 28 30 27 24 6 4 5 7 5 8 4 5 8 6 3 9 14 12 6 6 4 3 4 6 3 5 4 5 9 4 7 7 4 2 3 0 1 2 3 3 3 3 4 4 4 5 5 5
21 18 30 27 29 22 24 31 25 8 6 6 3 5 4 2 4 3 3 3 1 10 15 4 5 6 3 5 3 6 4 4 7 9 5 4 6 6 5 3 2 2 3 3 3 2 3 3 3 3 4 5 4 4
16 7 16 29 25 25 21 17 12 6 7 6 9 3 4 5 2 4 5 4 5 2 2 3 5 5 3 5 5 6 10 9 7 4 3 6 6 4 4 3 3 3 3 3 2 1 1 2 1 1 4 4 5 4
13 4 26 22 10 21 25 10 7 10 6 6 4 2 4 2 3 3 4 4 5 3 3 5 6 4 5 4 2 4 7 4 4 3 2 4 6 5 4 3 3 0 1 0 2 4 1 1 3 3 3 4 3 4
4 9 24 20 5 7 6 8 7 8 8 3 2 4 2 3 2 1 4 5 4 3 2 3 6 4 6 7 4 4 3 1 2 4 3 3 4 3 4 4 2 3 3 2 3 2 4 4 4 2 2 3 2 3
6 14 23 22 8 8 6 6 4 7 4 1 2 2 2 1 2 3 4 6 2 1 1 2 6 3 3 1 2 1 6 3 5 3 3 3 4 5 3 2 3 2 3 2 3 3 2 2 1 2 2 2 2 3
12 16 22 19 12 7 8 5 4 6 4 2 2 3 2 2 4 4 6 7 5 4 10 8 3 1 1 1 1 3 2 3 7 5 2 0 1 3 3 4 3 4 3 4 3 4 3 3 3 2 2 3 2 2
11 10 17 8 7 10 7 4 6 3 2 4 3 3 3 3 5 7 6 8 7 6 3 1 1 1 2 2 1 2 4 3 2 4 4 2 2 3 2 1 3 2 3 2 3 2 3 2 1 2 2 2 2 2
4 14 5 9 7 6 7 6 4 2 4 1 3 3 4 4 4 5 5 8 5 1 0 1 1 1 2 3 2 3 1 3 3 3 5 6 3 2 1 3 3 2 3 2 3 2 2 1 1 2 1 1 1 1
9 7 7 10 9 9 2 3 6 6 5 2 3 5 4 4 3 3 6 2 1 1 1 1 1 0 3 2 3 4 3 5 3 2 3 2 2 2 3 2 3 4 3 1 1 2 2 2 2 1 1 2 2 2
12 11 10 7 8 2 3 6 4 4 3 4 4 3 4 3 5 5 3 3 3 2 3 3 2 3 4 5 2 2 2 3 3 2 1 4 3 1 2 2 2 2 2 3 2 2 1 1 1 0 1 2 2 3
10 14 8 9 5 7 8 6 7 6 4 4 3 3 3 3 2 3 1 3 2 2 1 2 2 2 3 1 3 3 3 3 4 4 3 3 3 3 3 2 1 1 0 2 2 2 2 1 1 0 1 2 4 5
13 6 6 4 5 6 2 4 4 1 2 3 1 3 3 3 4 1 3 3 3 3 2 4 3 2 2 3 3 2 4 2 4 3 3 3 4 4 4 3 2 2 3 1 2 3 3 2 2 2 3 4 5 4
8 5 4 1 1 2 4 2 1 4 4 3 3 4 3 3 2 4 2 2 3 4 4 3 3 3 3 4 3 3 2 1 3 3 2 3 2 2 2 2 3 2 4 4 3 3 3 3 3 3 4 3 5 5
3 3 4 5 4 2 4 3 4 2 1 2 2 2 3 5 4 4 4 2 3 2 1 1 2 2 2 2 3 3 1 1 2 2 2 1 0 1 1 1 1 6 3 3 3 3 3 3 4 5 5 6 6 4
4 3 3 5 4 5 3 2 2 3 2 3 2 2 4 4 4 3 3 3 2 3 2 1 3 1 2 2 2 1 2 3 5 4 3 2 2 3 4 3 3 3 3 3 6 7 8 7 8 6 7 6 7 5
4 1 4 2 4 2 4 4 3 3 2 3 2 3 3 4 4 2 3 2 2 3 4 3 2 3 2 3 2 3 3 3 3 2 2 2 1 3 3 4 4 4 3 4 4 4 7 4 5 3 4 4 4 5
1 3 4 2 2 4 4 2 2 2 2 1 1 3 4 4 5 3 4 4 3 3 3 1 2 2 3 3 3 2 3 3 5 6 4 1 2 3 3 3 3 3 3 4 4 4 4 4 3 5 6 9 9 8
3 2 3 2 3 4 4 3 1 1 3 2 3 1 4 4 4 4 3 5 4 3 7 4 4 5 6 5 2 3 3 2 3 4 6 4 4 4 3 3 3 3 3 5 4 5 5 7 6 7 9 11 11 12
2 2 2 2 4 4 4 3 4 4 2 2 3 2 3 3 5 4 1 3 5 5 6 6 6 4 5 6 6 5 6 4 6 8 8 9 8 6 4 4 3 4 5 5 5 5 8 9 10 11 11 13 14 14
Wind_Direction
276 266 257 257 256 254 252 249 247 248 250 246 240 242 242 241 241 234 268 187 183 194 227 191 162 147 136 162 148 189 83 316 70 149 152 193 156 220 108 198 178 158 171 198 219 235 248 232 55 173 187 230 210 229
278 268 262 260 255 252 256 256 252 250 249 248 242 237 238 238 237 239 226 209 192 188 208 198 193 184 178 182 135 171 170 158 162 119 200 100 109 83 164 225 231 264 188 184 182 204 215 83 152 170 177 217 226 229
283 277 272 266 261 261 257 255 254 247 244 246 242 238 237 239 235 233 239 170 206 212 177 151 205 199 156 161 152 127 286 155 177 165 155 189 188 116 167 239 165 266 186 194 72 274 276 314 230 178 186 169 211 236
292 276 272 260 254 256 257 259 257 249 249 234 236 237 235 233 236 239 218 183 202 284 227 217 176 191 162 143 155 149 145 123 117 92 121 140 157 149 208 196 168 205 116 174 260 285 241 276 263 315 328 303 282 274
285 281 269 265 260 254 252 255 256 251 242 229 230 231 233 233 230 234 226 217 191 208 259 202 148 197 172 157 147 135 130 129 121 112 149 201 170 87 323 54 252 170 207 187 252 252 226 256 256 281 297 294 288 280
281 277 268 261 264 260 256 253 259 256 233 225 228 232 230 222 221 202 233 214 195 187 146 198 334 148 148 153 144 150 143 121 127 146 187 238 240 117 139 218 251 258 196 203 253 265 237 269 281 322 304 313 314 301
278 273 263 260 262 261 257 263 258 244 223 217 220 216 218 213 210 197 206 209 176 168 162 206 157 276 163 125 82 97 87 132 116 131 162 150 200 125 124 233 249 162 213 256 261 347 274 261 291 336 349 333 326 302
276 271 266 262 257 260 259 267 246 222 206 208 210 209 207 211 221 215 215 129 164 173 160 177 118 144 164 136 124 125 117 96 125 159 65 132 49 96 242 239 246 164 221 247 53 22 327 306 322 1 0 347 335 326
305 279 260 259 247 253 254 269 213 195 198 198 202 207 210 208 198 207 209 227 170 220 185 158 149 165 146 104 111 116 122 142 137 160 179 113 201 210 225 231 229 111 153 306 323 296 21 15 338 341 342 340 322 313
302 254 258 242 241 242 238 227 206 196 196 196 189 155 189 194 183 143 189 213 212 193 163 186 154 156 154 130 122 110 119 147 152 221 117 154 238 244 94 106 110 116 93 43 3 314 343 317 338 321 318 317 308 301
15 1 270 241 240 232 219 211 203 195 194 187 153 173 216 169 140 173 210 196 187 175 155 138 191 137 205 153 126 156 147 155 158 215 145 193 254 220 127 114 104 94 90 83 90 282 281 283 304 308 307 302 302 301
18 5 4 255 228 223 220 208 201 188 158 167 143 114 96 153 191 191 204 179 200 173 157 151 161 121 117 93 113 144 141 115 191 141 122 218 232 117 130 127 103 80 73 350 288 292 296 299 301 298 294 296 294 292
25 17 5 359 250 206 202 202 202 198 159 101 165 147 131 190 233 168 174 250 141 160 158 143 135 120 103 100 115 126 133 182 128 130 202 226 128 135 150 140 139 95 113 237 308 294 313 301 312 275 284 278 287 290
13 16 13 9 14 209 194 186 170 150 136 175 140 137 207 174 230 221 149 182 182 145 153 149 117 126 119 112 129 112 165 109 80 135 225 216 179 150 171 149 115 211 283 273 275 292 299 289 286 300 302 299 306 310
349 16 9 14 10 23 186 170 104 59 48 68 47 165 207 336 256 243 235 146 306 155 142 145 73 86 98 116 123 110 94 164 189 212 212 164 138 144 147 147 171 234 263 271 252 258 301 311 327 324 319 317 342 336
356 40 1 0 21 30 61 55 42 67 61 59 28 78 30 247 333 349 355 72 357 17 104 101 107 97 111 123 128 182 138 199 218 186 154 127 134 128 142 178 218 235 231 252 275 238 344 9 325 311 338 2 356 357
40 43 346 354 39 37 36 59 56 51 58 39 39 50 249 334 66 300 3 347 337 261 121 110 98 145 103 116 167 198 193 202 148 142 118 109 134 162 178 183 192 229 242 325 57 33 345 3 76 62 34 349 358 15
41 327 357 3 80 66 37 38 71 61 69 28 71 330 24 23 319 18 335 342 348 27 25 134 121 105 149 153 236 163 144 76 75 117 129 121 128 159 168 148 175 194 192 109 108 73 44 61 62 13 14 15 8 37
319 6 0 13 62 85 69 38 49 98 71 125 100 22 52 26 33 345 337 340 332 313 12 31 82 117 144 83 120 138 138 163 150 149 126 139 146 156 154 145 147 142 109 108 99 102 101 92 115 346 0 29 56 22
355 13 4 19 41 73 65 22 38 77 76 76 37 4 46 41 321 340 357 10 14 28 38 37 60 84 73 341 267 135 148 127 119 93 60 17 182 128 143 159 184 167 103 63 63 89 53 31 19 23 32 34 55 42
23 348 2 46 46 55 79 20 46 60 70 66 337 28 46 13 15 11 357 345 54 33 61 4 62 276 318 293 330 77 60 66 103 137 160 145 239 153 159 144 127 100 109 109 106 83 82 84 24 38 44 36 21 19
327 360 45 21 70 53 73 13 90 41 57 49 31 21 30 21 1 9 303 39 50 358 177 156 229 197 33 22 339 36 77 71 21 57 56 104 130 133 162 179 104 108 106 146 141 140 120 89 78 55 56 23 342 330
9 21 45 17 72 47 314 12 68 8 71 9 27 37 19 9 312 315 69 66 226 317 225 146 259 32 108 336 32 25 51 93 86 103 103 140 129 123 102 85 127 130 123 291 122 128 139 117 84 94 29 21 340 331
29 45 35 39 28 53 359 26 34 50 46 38 50 39 354 310 321 43 52 301 275 337 16 339 55 35 19 23 30 288 309 102 121 69 205 123 109 12 118 125 96 96 128 132 122 136 137 136 111 111 53 303 303 314
64 1 24 8 7 39 38 20 3 40 50 353 67 26 340 349 66 58 165 264 295 282 272 288 97 106 134 273 317 286 283 142 154 163 261 159 130 68 44 41 80 165 132 134 170 169 173 195 218 276 328 313 308 307
65 326 43 345 355 56 347 65 38 95 83 57 334 276 9 65 61 263 242 215 224 203 209 199 151 81 350 196 186 226 232 203 133 111 267 163 151 140 164 151 170 213 181 203 169 187 212 219 239 275 284 286 291 304
65 348 337 41 105 75 52 27 81 83 69 62 311 6 43 81 249 245 270 227 184 226 204 171 144 155 204 217 238 249 230 160 162 189 177 143 148 159 149 171 188 146 144 165 178 176 219 248 260 265 272 278 251 251
116 30 62 324 31 24 102 46 43 55 291 277 77 34 148 184 229 234 206 218 183 184 147 211 192 190 180 197 172 130 95 99 81 73 70 61 42 189 168 124 145 150 149 169 175 165 189 231 242 245 238 257 277 238
42 323 73 24 18 39 59 124 222 248 205 106 130 269 259 240 226 209 241 194 144 100 87 46 305 14 23 22 59 104 154 170 169 165 183 195 186 219 183 181 185 158 182 196 233 218 209 217 232 235 241 248 263 260
320 51 80 49 72 10 256 167 221 249 225 187 202 315 309 284 252 190 117 99 136 191 203 185 193 142 194 170 238 283 259 214 217 219 186 205 173 127 162 185 197 199 198 206 237 264 291 311 319 328 313 292 272 274
321 46 61 62 168 246 231 257 337 16 17 327 289 162 248 289 304 242 188 181 155 117 111 199 264 222 189 207 188 162 288 253 214 232 234 220 205 198 204 209 209 205 208 222 240 248 263 268 259 273 274 275 277 274
17 79 115 58 297 296 19 44 319 22 319 18 290 331 320 357 290 274 197 127 119 185 219 189 195 237 208 222 209 236 216 210 195 210 219 225 228 220 215 217 213 201 212 231 233 243 243 250 266 265 271 276 276 273
36 40 64 57 10 2 324 41 14 334 358 318 277 217 226 200 252 275 288 199 183 197 201 210 219 207 205 204 211 223 227 224 228 238 235 233 233 235 218 208 206 208 221 232 237 236 248 251 260 264 266 266 269 272